CST,Max TemperatureF,Mean TemperatureF,Min TemperatureF,Max Dew PointF,MeanDew PointF,Min DewpointF,Max Humidity, Mean Humidity, Min Humidity, Max Sea Level PressureIn, Mean Sea Level PressureIn, Min Sea Level PressureIn, Max VisibilityMiles, Mean VisibilityMiles, Min VisibilityMiles, Max Wind SpeedMPH, Mean Wind SpeedMPH, Max Gust SpeedMPH,PrecipitationIn, CloudCover, Events, WindDirDegrees
2013-2-1,61,49,37,37,30,21,82,55,28,30.37,30.32,30.27,10,10,9,16,5,,0.00,0,,342
2013-2-2,62,46,30,46,32,19,83,55,30,30.35,30.25,30.15,10,10,10,13,6,,0.00,1,,148
2013-2-3,66,54,43,48,38,24,93,62,20,30.22,30.15,30.08,10,10,10,15,4,23,0.00,1,,334
2013-2-4,63,52,41,54,41,33,90,65,41,30.10,30.04,29.96,10,10,10,7,4,,0.01,2,,138
2013-2-5,66,60,54,59,56,52,97,87,73,30.04,29.98,29.93,10,9,1,7,3,,0.25,7,Rain,73
2013-2-6,73,64,54,57,55,53,100,83,53,30.15,30.06,30.00,10,6,0,10,4,,0.01,3,Fog,79
2013-2-7,73,65,55,59,58,53,96,87,55,30.00,29.86,29.78,10,7,1,21,11,26,2.26,6,Rain,31
2013-2-8,71,58,46,56,50,45,100,84,51,30.16,30.01,29.92,10,5,0,14,3,,0.00,4,Fog,330
2013-2-9,64,54,43,48,42,35,90,70,34,30.23,30.16,30.13,10,10,10,10,7,,0.00,1,,78
2013-2-10,70,59,48,68,59,46,94,87,77,30.14,30.06,29.97,10,10,6,20,12,29,0.10,6,Rain-Thunderstorm,150
2013-2-11,73,65,57,70,64,54,94,90,78,30.12,30.05,29.99,10,9,1,17,6,29,0.63,8,Rain-Thunderstorm,299
2013-2-12,72,64,57,70,62,55,94,89,81,30.05,29.87,29.73,10,9,2,15,8,30,0.49,8,Rain-Thunderstorm,120
2013-2-13,71,60,46,67,52,41,93,83,62,30.02,29.88,29.75,10,10,2,15,6,25,0.22,5,Rain,309
2013-2-14,57,48,37,40,38,35,93,75,49,30.14,30.06,30.00,10,10,9,9,6,,0.00,0,,358
2013-2-15,66,50,33,42,36,31,92,64,29,30.14,30.06,30.01,10,10,10,9,3,,0.00,0,,330
2013-2-16,53,45,34,38,26,14,73,47,23,30.25,30.12,30.03,10,10,10,20,10,31,0.00,2,,323
2013-2-17,57,42,28,31,21,10,78,51,19,30.37,30.29,30.25,10,10,10,9,3,,0.00,0,,335
2013-2-18,63,50,36,50,40,29,79,64,43,30.29,30.19,30.02,10,10,10,20,9,29,0.00,3,,131
2013-2-19,69,58,43,61,49,26,94,68,26,30.17,30.06,29.97,10,10,6,17,12,29,0.27,5,Rain,298
2013-2-20,59,46,32,34,26,19,85,49,24,30.23,30.15,30.07,10,10,10,13,6,,0.00,0,,31
2013-2-21,66,52,37,63,44,28,90,67,36,30.08,29.98,29.90,10,10,10,17,8,25,0.00,3,,124
2013-2-22,70,68,66,67,66,63,100,91,83,29.99,29.91,29.84,10,7,0,14,6,22,1.86,8,Fog-Rain-Thunderstorm,139
2013-2-23,71,64,57,69,58,53,94,91,86,29.95,29.87,29.76,10,9,2,15,6,22,0.69,8,Rain-Thunderstorm,348
2013-2-24,72,62,52,52,50,45,94,74,39,29.98,29.92,29.85,10,9,2,12,7,,0.00,5,Rain,49
2013-2-25,68,65,62,64,60,57,94,88,73,29.69,29.61,29.50,10,9,4,22,13,29,0.15,8,Rain-Thunderstorm,129
2013-2-26,66,58,50,65,48,38,94,70,43,29.89,29.66,29.49,10,9,3,14,8,22,0.20,2,Rain,222
2013-2-27,64,54,43,43,41,37,93,66,38,29.99,29.94,29.88,10,10,10,13,3,,0.00,0,,244
2013-2-28,59,52,44,44,34,27,83,55,29,30.04,29.99,29.94,10,10,10,15,8,23,0.00,0,,322